SBIRS GEO-2 (USA 241)

Last updated on Thu Oct 30 2025 00:02:49 GMT+0000 (Coordinated Universal Time)

1 39120U 13011A 25302.31845690 -.00000274 00000+0 00000+0 0 9991 2 39120 3.9914 51.9953 0002025 174.8990 235.8685 1.00271303 46220
UTC large
Height (km)
Speed (km/s)
/
Latitude / Longitude
Inclination (degrees)
Orbital Period (minutes)
Azimuth
Elevation
Range (km)
Doppler Factor

Next 0 passes for location: London (51.5072 / 0.1276)

Sorry there are no passes over London.